Location: Brunsen
(51.8651°N, 9.8610°E)
Time: 21:22:50
(UTC+00:00)

CZ-2C R/B - Pass Details

Date: 15 August 2024
Orbit: 782 x 869 km, 98.3° (Epoch: 07 September)

Event Time Altitude Azimuth Distance (km) Brightness Sun altitude
Exits shadow 02:36:31 16° 244° (WSW) 2,096 4.2 -12.3°
Maximum altitude 02:38:37 19° 272° (W) 1,904 4.1 -12.1°
Drops below altitude 10° 02:42:23 10° 316° (NW) 2,443 5.1 -11.6°
Sets 02:45:27 0° 335° (NNW) 3,364 6.0 -11.3°
